Location: Austin
(30.3000°N, 97.7500°W)
Time: 02:08:03
(UTC-05:00)

YAOGAN 1 - Pass Details

Date: 15 May 2024
Orbit: 612 x 614 km, 97.8° (Epoch: 19 May)

Event Time Altitude Azimuth Distance (km) Brightness Sun altitude
Rises 20:56:57 0° 188° (S) 2,862 5.8 -8.3°
Reaches altitude 10° 20:59:18 10° 199° (SSW) 1,961 5.0 -8.8°
Maximum altitude 21:03:06 31° 262° (W) 1,069 4.4 -9.5°
Drops below altitude 10° 21:06:56 10° 325° (NW) 1,971 6.3 -10.2°
Sets 21:09:19 0° 336° (NNW) 2,879 6.9 -10.7°
